Blue Angels Classic - INVENTORY

Station: INVENTORY - T Race

Distance: 10 Miles

Release: 12-Jun-2020 13:30

Weather Release:    Arrival:

Wind at Release:     Wind at Arrival:

Temp at Release: °    Temp at Arrival: °

Lofts: 45

Birds: 157

Clocked: 149

Good Luck to Everyone!
Drops Pos Breeder Pigeon Name Color Sex Ent Arrival Speed To Win Elg Pd
1 Flying M Loft - AL 20591-AU20-MOBM SLV H 1 13:39:58.80 1763.527 00:00:00 Yes
2 Ron Talbot /Jimmy Fernandez - LA 3448-AU20-BAYO BC H 1 13:39:59.20 1762.350 00:00:00 Yes
3 Dyer - AL 20099-AU20-MOBM BBWF 1 1 13:40:01.10 1756.779 00:00:02 Yes
4 Pidg-Inn - AL 6499-AU20-FOYS Ghost 1 BB H 1 13:40:01.70 1755.027 00:00:03 Yes
5 Randy & Joe - TX 0085-AU20-NBC BB H 1 13:40:39.50 1651.290 00:00:41 Yes
6 Nesneb Racing Loft - AL 20066-AU20-NESN BC C 1 13:40:41.70 1645.629 00:00:43 Yes
6 Roberts Family Loft - TX 0204-AU20-DOUB BB C 1 13:40:41.70 1645.629 00:00:43 Yes
8 Pidg-Inn - AL 6488-AU20-FOYS JEANINE BBWF H 2 13:40:42.30 1644.092 00:00:43 Yes
9 Dyer - AL 3552-AU20-VITA BC C 2 13:40:43.10 1642.046 00:00:44 Yes
10 English Syndicate - UK 14634-GB20-E BB H 1 13:40:43.50 1641.026 00:00:45 Yes
10 Flying D Loft - TX 0505-AU20-FLYD Flyd 865 Flyd 625 BC C 1 13:40:43.50 1641.026 00:00:45 Yes
12 Flying M Loft - AL 20571-AU20-MOBM BB H 2 13:40:43.60 1640.771 00:00:45 Yes
13 Aucoin Loft - LA 2033-AU20-AUCO DCWF H 1 13:40:44.00 1639.752 00:00:45 Yes
14 Radd - OK 4272-AU20-ARPU 1527/1962 K BLK H 1 13:40:44.10 1639.497 00:00:45 Yes
15 Stephen Garansi Jr Loft - AL 0074-AU20-GARA BB C 1 13:40:44.70 1637.971 00:00:46 Yes
16 Credeur Family Loft - LA 0921-AU20-CFL BB H 1 13:40:45.10 1636.956 00:00:46 Yes
17 New Orleans Boys 2 - LA 20504-AU20-MET RC H 1 13:40:45.50 1635.941 00:00:47 Yes
18 Dale Alexander - LA 20478-AU20-MET DCWF C 1 13:40:45.60 1635.688 00:00:47 Yes
18 Ron Talbot /Jimmy Fernandez - LA 3454-AU20-BAYO BC C 2 13:40:45.60 1635.688 00:00:47 Yes
20 Kelley & Buckner - TX 0061-AU20-DENT GRZ C 1 13:40:46.70 1632.906 00:00:48 Yes
21 John Coker - TX 20057-AU20-MET BB H 1 13:40:47.10 1631.896 00:00:48 Yes
21 Flying D Loft - TX 0520-AU20-FLYD Foys 29785 Tex 3404 BC H 2 13:40:47.10 1631.896 00:00:48 Yes
23 Bionic Loft - LA 0043-AU20-CAJU BC C 1 13:40:47.70 1630.384 00:00:49 Yes
24 Radd - OK 4265-AU20-ARPU 139/1743 CS BB C 2 13:40:48.10 1629.378 00:00:49 Yes
25 Johnson / Perron - LA 0562-AU20-LAF BC C 1 13:40:48.60 1628.122 00:00:50 Yes
25 Randy & Joe - TX 0513-AU20-NBC BB C 2 13:40:48.60 1628.122 00:00:50 Yes
27 Nesneb Racing Loft - AL 20014-AU20-NESN BB H 2 13:40:49.00 1627.119 00:00:50 Yes
28 New Orleans Boys 2 - LA 20281-AU20-MET DCWF H 2 13:40:49.10 1626.868 00:00:50 Yes
29 Flying D Loft - TX 0503-AU20-FLYD Foys 5855 - Flyd 255 BC H 3 13:40:49.50 1625.866 00:00:51 Yes
30 Johnson / Perron - LA 0568-AU20-LAF BB H 2 13:40:49.90 1624.865 00:00:51 Yes
30 Ruston Racers - LA 2001-AU20-NLA DC H 1 13:40:49.90 1624.865 00:00:51 Yes
32 Aucoin Loft - LA 2029-AU20-AUCO BC C 2 13:40:50.40 1623.616 00:00:52 Yes
32 Johnson / Perron - LA 0515-AU20-LAF BC C 3 13:40:50.40 1623.616 00:00:52 Yes
34 Sly's Loft - AL 20491-AU20-MOBM BC H 1 13:40:50.50 1623.367 00:00:52 Yes
35 R & M Lofts - TX 9141-AU20-AA BC H 1 13:40:50.90 1622.369 00:00:52 Yes
35 Bruce Daehn - FL 0410-AU20-NWFI BB H 1 13:40:50.90 1622.369 00:00:52 Yes
37 Randolph Racers - AL 4098-IF20-PERT Best bet BBWF H 1 13:40:51.40 1621.124 00:00:53 Yes
37 New Orleans Boys 2 - LA 20046-AU20-MET BB C 3 13:40:51.40 1621.124 00:00:53 Yes
39 Randolph Racers - AL 20507-AU20-MOBM DELL MASTER BC 0 2 13:40:51.80 1620.129 00:00:53 Yes
40 Pidg-Inn - AL 6462-AU20-FOYS 007 BBWF H 3 13:40:51.90 1619.880 00:00:53 Yes
41 Peach Classic - GA 72555-IF20-E BB C 1 13:40:52.30 1618.887 00:00:53 Yes
42 Kelley & Buckner - TX 0048-AU20-DENT BB C 2 13:40:52.40 1618.639 00:00:54 Yes
43 Nesneb Racing Loft - AL 20070-AU20-NESN BC C 3 13:40:52.80 1617.647 00:00:54 Yes
43 Randolph Racers - AL 20533-AU20-MOBM Orient express DCWF C 3 13:40:52.80 1617.647 00:00:54 Yes
45 R & M Lofts - TX 9130-AU20-AA BB C 2 13:40:53.20 1616.656 00:00:54 Yes
46 Ledet-Gutrz - LA 20163-AU20-LEDT BB C 1 13:40:53.90 1614.926 00:00:55 Yes
46 Pidg-Inn - AL 6460-AU20-FOYS CLYDE BBWF H 4 13:40:53.90 1614.926 00:00:55 Yes
46 Roberts Family Loft - TX 0010-AU20-ROBE BB 1 2 13:40:53.90 1614.926 00:00:55 Yes
49 Two Cousins - LA 3628-AU20-BAYO BC C 1 13:40:54.00 1614.679 00:00:55 Yes
50 Baudy Loft - LA 20041-AU20-MET BC C 1 13:40:54.40 1613.692 00:00:56 Yes
51 Flying M Loft - AL 20579-AU20-MOBM BB C 3 13:40:54.80 1612.706 00:00:56 Yes
51 Dyer - AL 3551-AU20-VITA BB C 3 13:40:54.80 1612.706 00:00:56 Yes
53 Peters - GA 0048-AU20-PETE Darth Vader SLAT H 1 13:40:55.30 1611.476 00:00:56 Yes
53 Hynes - LA 20459-AU20-MET BBWF C 1 13:40:55.30 1611.476 00:00:56 Yes
55 Hi-Cal Connection - CA 0848-AU20-HICA BB H 1 13:40:55.80 1610.247 00:00:57 Yes
55 Radd - OK 4275-AU20-ARPU 2283/2528 He RCSP C 3 13:40:55.80 1610.247 00:00:57 Yes
55 Kelley & Buckner - TX 0059-AU20-DENT DCWF H 3 13:40:55.80 1610.247 00:00:57 Yes
58 Hynes - LA 20463-AU20-MET BC H 2 13:40:55.90 1610.002 00:00:57 Yes
59 Freebyrd Loft - LA 17981-AU20-AA Beauxdacious BB 0 1 13:40:56.30 1609.020 00:00:58 Yes
60 Wareagle Loft - AL 0635-AU20-WEL RC 0 1 13:40:56.90 1607.551 00:00:58 Yes
60 Flying M Loft - AL 20567-AU20-MOBM BC C 4 13:40:56.90 1607.551 00:00:58 Yes
62 Texas Holiday Derby - TX 0754-AU20-NSL "13108 X 2940414" SLAT C 1 13:40:57.00 1607.306 00:00:58 Yes
63 Johnson / Perron - LA 0571-AU20-LAF BC H 4 13:40:57.40 1606.328 00:00:59 Yes
63 Mike's Loft - MS 6780-AU20-SMRP SLV H 1 13:40:57.40 1606.328 00:00:59 Yes
65 Cam Loft - LA 9606-AU20-AA BB C 1 13:40:57.90 1605.107 00:00:59 Yes
65 Kelley & Buckner - TX 0041-AU20-DENT BB C 4 13:40:57.90 1605.107 00:00:59 Yes
65 Hynes - LA 20461-AU20-MET BBWF C 3 13:40:57.90 1605.107 00:00:59 Yes
68 Jed Loft - LA 2022-AU20-JED BB C 1 13:40:58.40 1603.888 00:01:00 Yes
69 Baudy Loft - LA 20040-AU20-MET BC H 2 13:40:58.80 1602.914 00:01:00 Yes
70 Roberts Family Loft - TX 0201-AU20-DOUB BBWF C 3 13:40:58.90 1602.671 00:01:00 Yes
71 Two Cousins - LA 3625-AU20-BAYO BB H 2 13:40:59.30 1601.699 00:01:00 Yes
72 Ed Minvielle - LA 20246-AU20-A BB H 1 13:40:59.40 1601.456 00:01:01 Yes
72 C F L - LA 0911-AU20-CFL BC H 1 13:40:59.40 1601.456 00:01:01 Yes
72 Transilvania Loft - NV 0288-AU20-CIMP BC H 1 13:40:59.40 1601.456 00:01:01 Yes
75 Flying M Loft - AL 20563-AU20-MOBM BB C 5 13:40:59.90 1600.242 00:01:01 Yes
76 Dyer - AL 20079-AU20-MOBM BB H 4 13:41:00.30 1599.273 00:01:02 Yes
77 Ruston Racers - LA 2004-AU20-NLA BC C 2 13:41:00.70 1598.305 00:01:02 Yes
78 Randy & Joe - TX 0530-AU20-NBC BCWF C 3 13:41:01.10 1597.338 00:01:02 Yes
79 Credeur Family Loft - LA 0912-AU20-CFL BC H 2 13:41:01.20 1597.096 00:01:02 Yes
79 Hynes - LA 20462-AU20-MET BB C 4 13:41:01.20 1597.096 00:01:02 Yes
81 Radd - OK 4256-AU20-ARPU 1148/5150 BP BB H 4 13:41:01.70 1595.889 00:01:03 Yes
81 Dale Alexander - LA 20488-AU20-MET SLV C 2 13:41:01.70 1595.889 00:01:03 Yes
81 English Syndicate - UK 14632-GB20-E DC C 2 13:41:01.70 1595.889 00:01:03 Yes
84 Nesneb Racing Loft - AL 20060-AU20-NESN BB C 4 13:41:02.20 1594.684 00:01:03 Yes
84 New Orleans Boys 2 - LA 20073-AU20-MET BB 0 4 13:41:02.20 1594.684 00:01:03 Yes
86 Nesneb Racing Loft - AL 20058-AU20-NESN BB C 5 13:41:02.90 1593.000 00:01:04 Yes
87 Hynes - LA 20469-AU20-MET BB H 5 13:41:03.30 1592.040 00:01:04 Yes
87 Hi-Cal Connection - CA 0868-AU20-HICA BC C 2 13:41:03.30 1592.040 00:01:04 Yes
89 Ledet-Gutrz - LA 20185-AU20-LEDT BB H 2 13:41:03.40 1591.800 00:01:05 Yes
90 Hi-Cal Connection - CA 0866-AU20-HICA BB C 3 13:41:03.80 1590.841 00:01:05 Yes
91 Ruston Racers - LA 2002-AU20-NLA BC H 3 13:41:04.60 1588.926 00:01:06 Yes
92 Kelley & Buckner - TX 0042-AU20-DENT GRZ C 5 13:41:05.00 1587.970 00:01:06 Yes
93 Kabarako Loft - FL 13411-AU20-ARPU BB H 1 13:41:05.80 1586.062 00:01:07 Yes
94 Randy & Joe - TX 0512-AU20-NBC BBWF H 4 13:41:06.70 1583.921 00:01:08 Yes
94 Transilvania Loft - NV 0287-AU20-CIMP BC H 2 13:41:06.70 1583.921 00:01:08 Yes
96 Freebyrd Loft - LA 17988-AU20-AA Mind Dat Bird BBWF 0 2 13:41:07.10 1582.971 00:01:08 Yes
97 Lonestar Loft - TX 0239-AU20-DENT BC C 1 13:41:07.50 1582.022 00:01:09 Yes
98 Texas Holiday Derby - TX 0786-AU20-NSL "46157 X 4984" SLAT C 2 13:41:07.60 1581.786 00:01:09 Yes
99 Sly's Loft - AL 20497-AU20-MOBM BC H 2 13:41:08.00 1580.838 00:01:09 Yes
100 English Syndicate - UK 14631-GB20-E DC C 3 13:41:08.40 1579.892 00:01:10 Yes

There are 160 bird records

Note: These Race Results are unofficial and subject to change until verified by the Race Committee and declared final.